Location: Tauranga
(37.6860°S, 176.1670°E)
Time: 20:02:31
(UTC+12:00)

USA 32 - Pass Details

Date: 24 January 2019
Orbit: 779 x 781 km, 85.0° (Epoch: 13 April)

Event Time Altitude Azimuth Distance (km) Brightness Sun altitude
Rises 21:30:17 0° 350° (N) 3,254 7.0 -10.4°
Reaches altitude 10° 21:32:38 10° 347° (NNW) 2,334 6.3 -10.8°
Maximum altitude 21:37:50 66° 265° (W) 859 4.5 -11.6°
Drops below altitude 10° 21:43:08 10° 182° (S) 2,367 7.1 -12.5°
Sets 21:45:32 0° 179° (S) 3,303 7.8 -12.8°
